This demonstration page uses our WeatherBlox Daily Observations layout. Learn more.

38.88101, -77.10428

Hourly Observations for October 27, 2020

Temp ( °F °C ) Dew Point ( °F °C ) Humidity (%) Winds ( mph kmh ) Pressure ( in mb ) Visibility ( mi km ) Precip ( " mm )
12:52 am 00:52 Cloudy 58 14.4 56 13.3 93 93 Calm 30.13 1020 10 16.0934 0 0
1:52 am 01:52 Cloudy 58 14.4 57 13.9 97 97 SW 3 6 30.14 1021 9 14.48406 0 0
2:52 am 02:52 Mostly Cloudy 58 14.4 56 13.3 93 93 SSW 5 7 30.14 1021 9 14.48406 0 0
3:30 am 03:30 Cloudy with Mist and Fog 58 14.4 56 13.3 93 93 WSW 3 6 30.15 1021 6 9.65604 0 0
3:52 am 03:52 Cloudy with Mist and Fog 58 14.4 57 13.9 97 97 WSW 3 6 30.14 1021 6 9.65604 0 0
4:52 am 04:52 Cloudy 59 15 57 13.9 93 93 WSW 3 6 30.15 1021 10 16.0934 0 0
5:22 am 05:22 Cloudy 60 15.6 57 13.9 90 90 Calm 30.16 1021 10 16.0934 0 0
5:43 am 05:43 Cloudy 59 15 57 13.9 93 93 S 3 6 30.15 1021 10 16.0934 0 0
5:52 am 05:52 Cloudy 59 15 57 13.9 93 93 SSW 3 6 30.16 1021 9 14.48406 0 0
6:52 am 06:52 Cloudy 60 15.6 57 13.9 90 90 Calm 30.18 1022 8 12.87472 0 0
7:52 am 07:52 Cloudy 60 15.6 56 13.3 86 86 NNW 7 11 30.2 1023 10 16.0934 0 0
8:41 am 08:41 Cloudy 60 15.6 56 13.3 86 86 N 8 13 30.23 1024 10 16.0934 0 0
8:52 am 08:52 Cloudy 60 15.6 56 13.3 86 86 N 9 15 30.22 1024 10 16.0934 0 0
9:12 am 09:12 Cloudy 60 15.6 56 13.3 86 86 NNE 7 11 30.23 1024 10 16.0934 0 0
9:52 am 09:52 Cloudy 61 16.1 56 13.3 84 84 NNE 7 11 30.23 1024 10 16.0934 0 0
10:52 am 10:52 Cloudy 61 16.1 56 13.3 84 84 ENE 5 7 30.22 1023 10 16.0934 0 0
11:52 am 11:52 Cloudy 62 16.7 55 12.8 78 78 Calm 30.22 1023 10 16.0934 0 0
12:52 pm 12:52 Cloudy 64 17.8 55 12.8 73 73 Calm 30.2 1023 10 16.0934 0 0
1:52 pm 13:52 Cloudy 65 18.3 55 12.8 70 70 NNE 6 9 30.19 1022 10 16.0934 0 0
2:52 pm 14:52 Mostly Cloudy 65 18.3 54 12.2 68 68 VRB 5 7 30.16 1021 10 16.0934 0 0
3:52 pm 15:52 Mostly Cloudy 65 18.3 53 11.7 66 66 Calm 30.13 1020 10 16.0934 0 0
4:52 pm 16:52 Cloudy 64 17.8 53 11.7 68 68 S 7 11 30.12 1020 10 16.0934 0 0
5:46 pm 17:46 Cloudy 64 18 54 12 68 68 W 6 9 30.15 1021 10 16.0934 0 0
5:52 pm 17:52 Cloudy 64 17.8 53 11.7 68 68 VRB 3 6 30.15 1021 10 16.0934 0 0
6:52 pm 18:52 Cloudy 63 17.2 55 12.8 76 76 SSW 5 7 30.14 1021 10 16.0934 0 0
7:52 pm 19:52 Cloudy 63 17.2 56 13.3 78 78 S 5 7 30.15 1021 10 16.0934 0 0
8:52 pm 20:52 Cloudy 62 16.7 58 14.4 86 86 S 8 13 30.14 1021 8 12.87472 0 0
9:11 pm 21:11 Cloudy 61 16.1 58 14.4 90 90 S 5 7 30.15 1021 10 16.0934 0 0
9:19 pm 21:19 Cloudy 61 16.1 58 14.4 90 90 SSW 5 7 30.15 1021 10 16.0934 0 0
9:52 pm 21:52 Cloudy 62 16.7 58 14.4 86 86 S 5 7 30.15 1021 10 16.0934 0 0
10:52 pm 22:52 Cloudy 62 16.7 58 14.4 86 86 SE 3 6 30.16 1021 10 16.0934 0 0
11:52 pm 23:52 Cloudy 62 16.7 58 14.4 86 86 SE 6 9 30.14 1021 10 16.0934 0 0

Powered by AerisWeather